Temperature
8 8 7 7 7 7 6 6 5 5 4 5 5 5 5 5 5 4 4 4 4 4 4 3 3 3 3 3 3 3 3 3 2 2 2 2 2 2
7 7 7 7 7 6 6 5 5 5 4 4 4 4 4 4 4 4 4 3 3 3 3 3 2 2 2 2 2 2 2 2 2 2 2 1 1 1
7 7 7 6 6 6 6 5 5 4 4 4 4 4 4 4 4 3 3 3 3 2 2 2 2 2 2 2 2 2 2 1 1 1 1 1 1 1
6 6 6 6 5 5 5 5 5 4 4 4 4 3 3 3 3 2 2 2 2 2 2 2 1 1 1 1 1 1 1 1 1 1 0 0 0 0
6 5 5 5 5 5 5 4 4 4 3 3 3 3 3 2 2 2 2 2 1 1 1 1 1 1 1 1 1 1 1 1 0 -0 -0 -0 -0 -0
5 5 5 4 4 4 4 4 3 3 3 3 2 2 2 2 1 1 1 1 1 1 1 1 1 1 1 0 0 0 -0 -0 -1 -1 -1 -1 -1 -1
4 4 4 4 4 3 3 3 3 3 2 2 2 1 1 1 0 0 0 0 0 0 0 0 0 0 0 0 -0 -1 -1 -1 -1 -1 -1 -1 -1 -1
4 4 3 3 3 3 3 3 2 2 2 1 1 1 1 0 0 -0 -1 -1 -1 -0 -0 -0 -0 -0 -1 -1 -1 -1 -1 -2 -2 -2 -2 -2 -2 -2
3 3 3 2 2 2 2 2 2 1 1 1 0 0 0 -0 -1 -1 -1 -1 -1 -1 -1 -1 -1 -1 -1 -1 -1 -2 -2 -2 -2 -2 -2 -2 -2 -2
2 2 2 2 2 1 1 1 1 1 1 0 0 -0 -0 -1 -1 -1 -1 -2 -2 -1 -2 -2 -1 -1 -1 -1 -2 -2 -2 -2 -3 -3 -3 -3 -3 -3
2 2 1 1 1 1 1 1 1 0 0 -0 -0 -1 -1 -1 -1 -2 -2 -2 -2 -2 -3 -3 -3 -3 -2 -2 -2 -2 -3 -3 -3 -3 -3 -3 -3 -3
1 1 1 0 0 -0 -0 -0 -0 -0 -0 -0 -1 -1 -1 -1 -2 -2 -3 -3 -3 -4 -4 -4 -4 -4 -4 -3 -3 -3 -3 -3 -3 -3 -3 -4 -4 -4
0 0 0 -0 -0 -0 -0 -0 -1 -1 -1 -1 -1 -1 -2 -2 -2 -3 -3 -3 -4 -4 -4 -5 -5 -5 -5 -5 -4 -3 -4 -4 -3 -3 -4 -4 -4 -4
-0 -0 -0 -0 -1 -1 -1 -1 -1 -2 -2 -2 -2 -2 -3 -3 -3 -3 -3 -4 -4 -4 -5 -5 -5 -5 -6 -6 -5 -4 -4 -4 -4 -4 -4 -4 -4 -4
-1 -1 -1 -1 -1 -1 -1 -2 -2 -2 -2 -3 -3 -3 -3 -3 -3 -3 -4 -4 -4 -4 -5 -5 -5 -6 -6 -6 -6 -5 -5 -4 -4 -5 -5 -5 -4 -5
-2 -2 -2 -2 -2 -2 -2 -2 -2 -3 -3 -3 -3 -3 -3 -4 -4 -4 -4 -4 -4 -4 -5 -5 -5 -6 -6 -6 -6 -5 -5 -6 -5 -5 -5 -5 -5 -5
-2 -2 -2 -2 -2 -2 -3 -3 -3 -3 -3 -3 -4 -4 -4 -4 -4 -4 -5 -5 -5 -5 -5 -5 -6 -6 -6 -6 -6 -5 -6 -6 -6 -6 -6 -6 -5 -5
-3 -3 -3 -3 -3 -3 -3 -3 -3 -4 -4 -4 -4 -4 -5 -5 -5 -5 -5 -5 -5 -6 -6 -6 -6 -6 -6 -5 -6 -6 -6 -6 -6 -6 -6 -6 -5 -5
-3 -4 -4 -4 -4 -4 -4 -4 -4 -4 -4 -4 -5 -5 -5 -5 -5 -5 -6 -6 -6 -6 -6 -7 -7 -8 -8 -8 -6 -6 -7 -7 -7 -6 -6 -7 -6 -5
-4 -4 -4 -4 -4 -4 -5 -5 -5 -5 -5 -5 -5 -5 -5 -6 -6 -6 -6 -7 -7 -7 -7 -7 -7 -8 -8 -8 -8 -6 -7 -7 -7 -7 -7 -6 -6 -6
-4 -4 -5 -5 -5 -5 -5 -5 -5 -5 -5 -5 -6 -6 -6 -6 -6 -7 -7 -7 -7 -7 -7 -7 -7 -8 -8 -8 -8 -7 -6 -7 -7 -7 -7 -7 -7 -6
-5 -5 -5 -5 -5 -5 -5 -5 -5 -5 -6 -6 -6 -6 -7 -7 -7 -7 -7 -8 -8 -8 -8 -8 -7 -8 -8 -8 -8 -8 -7 -6 -6 -6 -7 -7 -7 -7
-5 -5 -5 -5 -5 -5 -6 -5 -6 -6 -6 -6 -7 -7 -7 -7 -7 -7 -8 -8 -8 -8 -8 -8 -8 -8 -8 -8 -8 -8 -7 -7 -7 -6 -6 -6 -7 -7
Wind_Speed
3 3 2 2 2 2 2 2 2 4 5 4 2 2 4 5 7 7 8 11 12 13 13 14 14 14 15 16 16 16 17 17 18 18 18 19 19 20
2 3 3 2 2 2 2 2 2 3 5 3 3 3 4 6 8 8 9 11 11 12 13 13 14 15 15 16 17 17 17 17 18 18 19 19 19 20
2 2 3 2 2 2 2 2 2 2 5 5 3 3 3 3 6 8 8 8 9 12 13 14 14 15 16 16 17 17 17 18 18 18 19 19 20 19
3 3 3 2 2 2 2 3 3 3 3 6 5 3 4 3 4 5 7 9 9 11 13 14 15 16 16 16 17 17 17 17 18 18 19 19 20 20
3 3 3 2 3 2 2 2 2 3 2 4 5 4 4 4 4 5 6 6 9 11 12 13 15 16 17 17 17 17 17 17 18 18 18 19 19 19
2 2 2 3 3 3 2 3 2 2 2 3 4 4 4 4 3 5 6 4 6 9 10 12 14 16 16 17 17 16 16 17 17 18 18 19 19 19
1 2 2 2 3 3 3 3 2 2 2 3 4 5 4 4 4 4 6 6 6 5 5 7 8 8 11 14 15 15 16 16 17 18 18 18 18 18
2 2 2 2 2 3 4 4 3 3 4 4 5 5 6 5 4 5 5 6 6 3 5 8 6 7 8 10 14 16 16 16 17 17 18 18 18 18
2 2 2 2 2 2 3 3 4 5 6 5 5 6 6 6 5 6 6 7 8 6 6 8 5 7 8 11 16 16 16 17 16 17 17 18 18 18
2 3 2 2 3 3 2 2 3 4 5 4 4 5 5 5 5 6 7 6 6 5 4 6 6 7 8 9 14 15 16 16 17 17 18 19 19 19
1 2 2 2 4 4 2 2 3 3 5 6 7 7 8 8 7 4 4 5 6 5 2 3 5 7 7 5 9 13 15 17 18 18 19 19 19 19
2 2 3 4 5 4 3 3 3 4 3 4 5 6 6 6 7 4 3 4 5 5 2 3 4 5 5 4 5 8 11 15 18 18 19 19 19 14
2 2 2 5 5 5 4 3 5 4 2 2 3 3 3 3 3 4 3 3 4 5 4 4 5 4 5 6 6 6 7 8 11 13 16 19 19 15
2 2 2 4 5 5 4 4 5 4 1 2 2 3 3 3 4 4 5 5 5 6 7 6 5 6 7 8 7 6 7 8 8 9 10 15 17 19
2 3 5 6 5 3 3 4 4 1 1 2 3 3 3 3 4 4 5 5 6 7 7 7 5 6 6 7 7 8 8 7 7 7 8 9 9 10
2 3 4 5 4 4 3 3 2 1 2 2 3 3 3 3 4 3 4 4 5 5 4 6 7 5 6 7 8 9 8 6 7 8 9 8 8 9
2 2 2 2 2 2 2 2 1 2 2 2 3 3 4 4 4 3 3 4 4 5 5 4 5 6 6 7 7 8 8 8 8 9 9 9 8 8
3 1 2 2 2 2 2 2 2 2 2 2 3 3 4 4 4 4 3 4 5 5 5 5 5 5 4 4 6 7 7 7 8 8 8 9 10 8
2 1 2 2 2 2 2 2 3 3 2 2 3 3 3 4 4 4 4 4 4 5 5 4 5 5 7 8 6 5 6 8 8 8 7 8 10 10
1 2 2 2 2 2 2 2 3 3 3 3 3 3 3 4 4 4 4 4 5 5 5 4 4 5 6 7 7 7 10 8 7 9 9 8 8 12
2 2 2 2 2 2 2 2 3 3 3 3 3 3 3 3 3 4 4 7 6 5 6 6 6 9 6 5 6 7 6 10 11 9 9 9 9 8
2 2 2 2 2 2 2 2 3 3 3 3 3 3 3 3 3 4 4 5 5 5 6 6 6 5 4 5 8 9 9 9 11 14 12 11 7 6
2 2 2 3 2 2 2 3 3 3 3 3 3 3 3 3 3 4 4 4 5 5 6 6 5 4 5 6 7 8 10 10 8 8 8 12 14 15
Wind_Direction
207 211 215 216 209 214 213 206 223 274 277 262 272 279 306 306 307 307 306 307 310 310 310 311 311 311 311 311 311 311 310 310 310 309 308 308 308 308
213 212 224 225 220 220 216 224 219 236 268 271 278 287 298 304 306 309 301 304 307 306 306 309 311 311 310 310 309 308 308 308 308 308 307 307 307 307
223 223 231 227 227 234 234 236 242 240 265 286 287 299 297 298 310 307 304 299 298 301 302 306 308 310 310 309 308 308 308 308 308 308 308 307 306 306
224 225 233 237 238 240 233 244 250 246 255 282 294 295 290 293 302 302 309 305 300 297 299 302 305 308 309 309 309 308 308 308 309 309 308 308 308 307
219 222 230 223 242 246 244 254 262 279 276 276 289 295 298 302 308 304 304 303 304 300 299 301 304 307 308 307 306 308 309 309 309 309 309 309 309 308
232 227 232 222 229 235 251 246 257 272 280 280 290 295 297 303 305 307 308 300 303 302 300 303 306 307 306 305 306 307 308 310 310 309 310 310 308 306
253 243 242 254 265 260 263 250 243 256 271 275 282 293 294 302 301 302 302 306 297 290 302 303 305 302 302 304 306 305 307 310 311 311 312 312 310 308
246 252 274 267 272 289 289 287 277 260 261 271 282 280 285 292 296 298 302 307 301 300 309 302 299 297 296 296 302 307 310 312 312 312 313 314 312 311
238 243 270 280 290 257 285 302 302 292 278 268 269 274 280 282 287 292 291 293 290 296 307 297 298 296 296 299 306 308 311 314 314 314 315 315 315 313
239 235 237 249 256 257 271 291 289 293 287 283 263 273 283 285 275 277 284 292 292 291 296 292 300 299 301 298 304 308 312 315 316 315 315 316 315 314
272 266 261 258 272 285 287 285 299 311 322 314 310 307 306 306 306 305 304 306 305 302 301 290 300 310 301 292 301 313 317 317 317 317 318 318 318 316
308 302 288 279 280 289 274 261 275 290 307 319 322 319 317 310 309 305 295 300 305 300 305 314 306 323 310 293 301 313 313 311 313 315 317 319 320 318
297 300 290 289 291 293 294 269 271 293 300 302 306 310 315 320 320 324 313 291 293 288 298 314 302 302 288 298 304 302 305 309 313 312 313 317 318 318
291 292 295 304 308 309 310 301 304 317 319 311 308 307 313 315 315 319 312 303 287 281 289 293 286 292 298 299 300 307 312 310 308 305 306 312 315 314
308 310 317 320 322 317 312 316 321 325 308 303 299 299 299 300 311 316 316 312 304 297 293 287 282 289 289 291 295 301 308 307 300 305 310 310 308 309
331 320 324 325 327 324 328 329 328 302 299 290 295 298 307 312 313 314 315 321 317 308 298 294 288 282 288 286 287 293 298 300 310 311 309 305 303 302
330 338 338 330 329 334 331 330 329 322 312 307 304 311 314 314 311 314 313 316 311 311 314 312 303 287 278 281 287 289 295 297 300 309 312 310 307 303
331 320 316 316 309 308 311 316 317 307 303 304 306 306 309 311 312 314 314 313 310 313 316 318 323 323 313 282 252 277 291 298 306 310 311 309 311 312
337 310 300 299 302 304 303 303 305 304 301 300 301 303 306 307 310 314 317 318 314 314 316 318 323 325 323 319 300 274 296 306 311 312 310 304 304 308
325 305 305 303 301 302 305 307 308 308 307 307 305 304 304 307 311 315 315 314 314 314 315 316 316 313 303 301 298 299 298 296 306 308 309 304 297 295
316 312 310 307 303 305 306 306 305 301 304 307 304 304 308 312 313 315 313 312 315 314 314 313 305 309 300 296 299 302 301 300 300 300 306 307 308 309
307 305 307 303 300 296 296 299 302 300 305 307 308 309 310 309 308 310 312 313 312 309 307 307 307 311 310 306 304 306 311 312 309 306 298 295 302 309
299 301 305 305 297 290 292 292 291 295 299 300 300 304 306 307 307 306 306 307 309 310 312 313 315 310 303 300 302 306 310 315 319 322 315 314 311 303
Height
1514 1515 1515 1515 1515 1515 1515 1514 1513 1509 1506 1506 1506 1505 1504 1502 1500 1498 1496 1494 1492 1490 1488 1485 1483 1480 1478 1475 1472 1470 1467 1464 1462 1459 1457 1455 1452 1450
1510 1510 1510 1510 1510 1510 1510 1509 1509 1507 1503 1501 1501 1500 1499 1497 1495 1493 1491 1489 1487 1485 1483 1480 1478 1475 1472 1469 1467 1464 1461 1459 1456 1453 1451 1449 1446 1444
1506 1506 1506 1506 1506 1505 1505 1504 1504 1503 1499 1496 1496 1495 1494 1492 1490 1488 1486 1484 1482 1480 1478 1475 1473 1470 1467 1464 1461 1458 1456 1453 1450 1447 1445 1442 1440 1437
1501 1501 1501 1501 1501 1500 1500 1499 1498 1498 1496 1491 1490 1489 1488 1486 1484 1482 1481 1479 1476 1474 1472 1470 1467 1464 1461 1459 1456 1453 1450 1447 1444 1441 1439 1436 1433 1430
1497 1497 1497 1496 1496 1495 1495 1494 1493 1492 1491 1488 1485 1484 1483 1481 1479 1477 1475 1473 1471 1469 1466 1464 1461 1459 1456 1453 1450 1447 1444 1441 1438 1435 1432 1429 1427 1424
1493 1492 1492 1492 1491 1491 1490 1489 1488 1487 1486 1484 1481 1479 1477 1476 1474 1471 1468 1467 1465 1463 1461 1458 1456 1453 1450 1447 1444 1441 1439 1435 1432 1429 1426 1423 1420 1418
1488 1488 1488 1487 1487 1486 1486 1485 1484 1482 1481 1479 1477 1475 1473 1471 1469 1467 1464 1461 1459 1458 1454 1453 1450 1447 1444 1441 1439 1436 1433 1430 1427 1424 1420 1417 1415 1412
1484 1483 1483 1483 1482 1482 1481 1480 1480 1478 1476 1475 1472 1470 1468 1467 1465 1463 1460 1457 1453 1453 1449 1446 1445 1441 1439 1436 1433 1431 1428 1425 1422 1418 1415 1412 1409 1406
1480 1479 1479 1478 1478 1477 1476 1475 1474 1473 1473 1472 1469 1466 1465 1463 1461 1458 1456 1454 1450 1448 1444 1440 1439 1436 1434 1431 1429 1426 1423 1420 1416 1413 1410 1407 1404 1401
1476 1475 1475 1474 1473 1472 1471 1470 1469 1468 1468 1466 1465 1462 1461 1459 1458 1455 1452 1449 1446 1444 1441 1436 1433 1431 1428 1426 1423 1420 1418 1415 1412 1408 1405 1402 1399 1396
1472 1471 1471 1470 1469 1469 1467 1465 1464 1463 1463 1461 1460 1459 1457 1456 1454 1451 1448 1445 1440 1438 1437 1434 1429 1425 1422 1420 1418 1415 1413 1410 1407 1403 1400 1397 1394 1390
1467 1467 1467 1466 1465 1464 1463 1461 1459 1458 1457 1456 1455 1454 1452 1451 1449 1447 1444 1441 1437 1434 1433 1430 1426 1423 1417 1414 1413 1411 1408 1405 1402 1399 1395 1392 1388 1384
1463 1463 1462 1462 1461 1460 1459 1457 1456 1455 1453 1452 1450 1449 1448 1446 1444 1442 1441 1438 1435 1432 1431 1428 1424 1421 1418 1411 1407 1406 1403 1400 1396 1393 1390 1387 1384 1380
1459 1459 1458 1458 1457 1456 1455 1453 1452 1451 1449 1448 1446 1445 1443 1442 1440 1438 1436 1434 1432 1430 1427 1425 1421 1418 1414 1409 1404 1401 1399 1396 1392 1389 1385 1382 1379 1375
1456 1455 1455 1454 1453 1452 1450 1450 1448 1447 1446 1445 1443 1441 1440 1438 1436 1434 1432 1430 1428 1426 1424 1421 1418 1415 1411 1407 1402 1398 1394 1391 1388 1384 1380 1377 1373 1370
1452 1451 1451 1450 1449 1448 1447 1446 1445 1444 1443 1442 1440 1438 1437 1435 1433 1430 1428 1425 1423 1421 1420 1417 1414 1411 1407 1404 1400 1395 1392 1388 1384 1381 1376 1372 1369 1366
1449 1448 1447 1446 1445 1444 1443 1442 1442 1441 1440 1438 1437 1435 1433 1431 1429 1427 1425 1422 1420 1417 1414 1412 1410 1407 1404 1401 1396 1393 1389 1385 1381 1377 1372 1367 1364 1361
1446 1444 1443 1443 1442 1441 1440 1439 1438 1437 1436 1435 1434 1432 1430 1428 1426 1424 1422 1420 1417 1414 1412 1409 1405 1402 1399 1396 1395 1390 1386 1382 1378 1374 1370 1364 1358 1356
1444 1442 1441 1440 1439 1438 1437 1436 1435 1434 1433 1432 1430 1429 1427 1425 1423 1421 1419 1417 1414 1412 1409 1407 1404 1400 1396 1392 1390 1389 1385 1379 1375 1370 1366 1362 1356 1351
1441 1440 1439 1438 1437 1436 1435 1434 1432 1431 1430 1429 1427 1426 1424 1422 1420 1418 1416 1414 1412 1409 1407 1404 1402 1400 1397 1393 1388 1384 1383 1378 1373 1367 1363 1358 1353 1349
1438 1437 1437 1436 1435 1434 1432 1431 1430 1429 1427 1426 1424 1423 1421 1420 1418 1416 1414 1412 1410 1407 1404 1402 1400 1398 1395 1391 1386 1381 1379 1376 1372 1367 1361 1355 1349 1344
1436 1435 1434 1433 1432 1431 1430 1428 1427 1426 1424 1423 1421 1420 1419 1417 1415 1414 1412 1410 1408 1405 1403 1400 1398 1395 1392 1388 1384 1379 1374 1371 1368 1364 1360 1356 1350 1343
1433 1432 1431 1430 1429 1428 1427 1425 1424 1423 1421 1420 1419 1417 1416 1415 1413 1411 1410 1408 1405 1403 1400 1398 1395 1392 1389 1386 1382 1378 1373 1368 1364 1359 1356 1353 1349 1344